TimeCST,TemperatureF,Dew PointF,Humidity,Sea Level PressureIn,VisibilityMPH,Wind Direction,Wind SpeedMPH,Gust SpeedMPH,PrecipitationIn,Events,Conditions,WindDirDegrees,DateUTC
12:15 AM,35.6,33.8,93,29.92,7.0,NNE,8.1,-,N/A,,Clear,30,2012-11-09 06:15:00
12:35 AM,35.6,33.8,93,29.92,7.0,NNE,4.6,-,N/A,,Clear,30,2012-11-09 06:35:00
12:55 AM,35.6,33.8,93,29.92,7.0,NNE,3.5,-,N/A,,Clear,30,2012-11-09 06:55:00
1:15 AM,35.6,33.8,93,29.92,7.0,NNE,3.5,-,N/A,,Clear,30,2012-11-09 07:15:00
1:35 AM,35.6,33.8,93,29.90,7.0,NE,5.8,-,N/A,,Clear,40,2012-11-09 07:35:00
1:55 AM,35.6,33.8,93,29.90,7.0,NE,6.9,-,N/A,,Clear,40,2012-11-09 07:55:00
2:15 AM,35.6,33.8,93,29.89,10.0,NE,8.1,-,N/A,,Clear,50,2012-11-09 08:15:00
2:35 AM,33.8,33.8,100,29.89,7.0,NNE,5.8,-,N/A,,Clear,30,2012-11-09 08:35:00
2:55 AM,33.8,33.8,100,29.90,7.0,NNE,4.6,-,N/A,,Clear,20,2012-11-09 08:55:00
3:35 AM,33.8,32.0,93,29.90,7.0,NE,5.8,-,N/A,,Clear,50,2012-11-09 09:35:00
3:55 AM,33.8,32.0,93,29.90,7.0,NNE,3.5,-,N/A,,Clear,30,2012-11-09 09:55:00
4:15 AM,33.8,32.0,93,29.90,7.0,NNE,3.5,-,N/A,,Clear,20,2012-11-09 10:15:00
4:35 AM,33.8,32.0,93,29.90,7.0,NNE,3.5,-,N/A,,Clear,30,2012-11-09 10:35:00
4:55 AM,33.8,32.0,93,29.91,7.0,NNE,6.9,-,N/A,,Clear,30,2012-11-09 10:55:00
5:15 AM,33.8,32.0,93,29.91,5.0,NNE,5.8,-,N/A,,Clear,30,2012-11-09 11:15:00
5:55 AM,32.0,32.0,100,29.91,5.0,NE,6.9,-,N/A,,Mostly Cloudy,40,2012-11-09 11:55:00
6:15 AM,33.8,33.8,100,29.91,1.8,NE,8.1,-,N/A,,Overcast,40,2012-11-09 12:15:00
6:35 AM,33.8,33.8,100,29.91,1.8,NE,9.2,-,N/A,,Overcast,40,2012-11-09 12:35:00
6:55 AM,33.8,33.8,100,29.91,1.8,NE,6.9,-,N/A,,Overcast,50,2012-11-09 12:55:00
7:35 AM,33.8,33.8,100,29.90,3.0,NE,11.5,-,N/A,,Overcast,40,2012-11-09 13:35:00
7:55 AM,35.6,33.8,93,29.91,3.0,NE,11.5,-,N/A,,Overcast,50,2012-11-09 13:55:00
8:15 AM,35.6,33.8,93,29.91,3.0,NE,10.4,-,N/A,,Overcast,40,2012-11-09 14:15:00
8:35 AM,35.6,35.6,100,29.90,4.0,NE,12.7,-,N/A,,Overcast,50,2012-11-09 14:35:00
8:55 AM,35.6,35.6,100,29.91,4.0,NE,11.5,17.3,N/A,,Overcast,50,2012-11-09 14:55:00
9:15 AM,35.6,35.6,100,29.91,4.0,NE,6.9,-,N/A,,Overcast,50,2012-11-09 15:15:00
9:35 AM,37.4,35.6,93,29.90,5.0,NE,9.2,-,N/A,,Overcast,50,2012-11-09 15:35:00
9:55 AM,37.4,35.6,93,29.90,7.0,ENE,10.4,-,N/A,,Overcast,70,2012-11-09 15:55:00
10:15 AM,39.2,35.6,87,29.89,7.0,ENE,10.4,-,N/A,,Overcast,60,2012-11-09 16:15:00
10:55 AM,42.8,37.4,81,29.87,10.0,ENE,10.4,-,N/A,,Clear,60,2012-11-09 16:55:00
11:15 AM,46.4,37.4,71,29.86,10.0,ENE,11.5,16.1,N/A,,Clear,70,2012-11-09 17:15:00
11:35 AM,46.4,37.4,71,29.86,10.0,ENE,5.8,-,N/A,,Clear,60,2012-11-09 17:35:00
11:55 AM,48.2,39.2,71,29.83,10.0,East,10.4,-,N/A,,Clear,80,2012-11-09 17:55:00
12:15 PM,50.0,39.2,66,29.81,10.0,East,8.1,-,N/A,,Clear,80,2012-11-09 18:15:00
12:35 PM,51.8,39.2,62,29.81,10.0,East,10.4,-,N/A,,Clear,80,2012-11-09 18:35:00
12:55 PM,53.6,39.2,58,29.80,10.0,ESE,11.5,-,N/A,,Clear,110,2012-11-09 18:55:00
1:15 PM,55.4,41.0,58,29.79,10.0,ESE,10.4,-,N/A,,Clear,110,2012-11-09 19:15:00
1:35 PM,57.2,41.0,55,29.78,10.0,ESE,12.7,16.1,N/A,,Clear,110,2012-11-09 19:35:00
1:55 PM,55.4,41.0,58,29.77,10.0,ESE,13.8,-,N/A,,Clear,110,2012-11-09 19:55:00
2:15 PM,59.0,42.8,55,29.77,10.0,East,8.1,-,N/A,,Clear,100,2012-11-09 20:15:00
2:35 PM,60.8,42.8,52,29.75,10.0,SE,11.5,16.1,N/A,,Clear,130,2012-11-09 20:35:00
2:55 PM,59.0,42.8,55,29.75,10.0,SE,9.2,16.1,N/A,,Clear,130,2012-11-09 20:55:00
3:15 PM,59.0,42.8,55,29.75,10.0,ESE,9.2,18.4,N/A,,Clear,120,2012-11-09 21:15:00
3:35 PM,59.0,42.8,55,29.76,10.0,SE,12.7,18.4,N/A,,Clear,130,2012-11-09 21:35:00
3:55 PM,57.2,42.8,59,29.76,10.0,SE,10.4,17.3,N/A,,Clear,140,2012-11-09 21:55:00
4:15 PM,57.2,42.8,59,29.75,10.0,SE,8.1,16.1,N/A,,Scattered Clouds,130,2012-11-09 22:15:00
4:35 PM,57.2,44.6,63,29.75,10.0,ESE,8.1,-,N/A,,Overcast,110,2012-11-09 22:35:00
4:55 PM,55.4,42.8,63,29.76,10.0,ESE,9.2,-,N/A,,Overcast,110,2012-11-09 22:55:00
5:15 PM,55.4,42.8,63,29.76,10.0,East,6.9,-,N/A,,Overcast,100,2012-11-09 23:15:00
5:35 PM,53.6,42.8,67,29.76,10.0,East,8.1,-,N/A,,Overcast,100,2012-11-09 23:35:00
5:55 PM,53.6,42.8,67,29.76,10.0,East,8.1,-,N/A,,Overcast,100,2012-11-09 23:55:00
6:15 PM,53.6,42.8,67,29.76,10.0,ESE,12.7,-,N/A,,Overcast,110,2012-11-10 00:15:00
6:35 PM,53.6,42.8,67,29.77,10.0,East,11.5,-,N/A,,Overcast,100,2012-11-10 00:35:00
6:55 PM,53.6,42.8,67,29.77,10.0,ESE,11.5,16.1,N/A,,Overcast,110,2012-11-10 00:55:00
7:15 PM,51.8,42.8,71,29.77,10.0,East,9.2,16.1,N/A,,Overcast,100,2012-11-10 01:15:00
7:35 PM,50.0,42.8,76,29.76,10.0,East,9.2,-,N/A,,Scattered Clouds,100,2012-11-10 01:35:00
7:55 PM,48.2,42.8,82,29.76,10.0,East,9.2,-,N/A,,Clear,90,2012-11-10 01:55:00
8:15 PM,48.2,42.8,82,29.75,10.0,East,10.4,-,N/A,,Clear,90,2012-11-10 02:15:00
8:35 PM,48.2,42.8,82,29.74,10.0,East,10.4,16.1,N/A,,Clear,90,2012-11-10 02:35:00
8:55 PM,48.2,42.8,82,29.73,10.0,East,13.8,17.3,N/A,,Clear,90,2012-11-10 02:55:00
9:15 PM,48.2,42.8,82,29.73,10.0,East,12.7,19.6,N/A,,Clear,100,2012-11-10 03:15:00
9:35 PM,48.2,42.8,82,29.71,10.0,East,13.8,18.4,N/A,,Clear,100,2012-11-10 03:35:00
9:55 PM,48.2,42.8,82,29.71,10.0,East,13.8,20.7,N/A,,Clear,100,2012-11-10 03:55:00
10:15 PM,48.2,42.8,82,29.69,10.0,East,15.0,21.9,N/A,,Clear,100,2012-11-10 04:15:00
10:35 PM,48.2,42.8,82,29.69,10.0,East,11.5,16.1,N/A,,Clear,100,2012-11-10 04:35:00
10:55 PM,48.2,44.6,87,29.68,10.0,East,11.5,18.4,N/A,,Clear,100,2012-11-10 04:55:00
11:15 PM,48.2,44.6,87,29.67,10.0,East,10.4,18.4,N/A,,Clear,100,2012-11-10 05:15:00
11:35 PM,48.2,44.6,87,29.67,10.0,East,5.8,16.1,N/A,,Clear,90,2012-11-10 05:35:00
11:55 PM,48.2,44.6,87,29.66,10.0,East,6.9,-,N/A,,Clear,80,2012-11-10 05:55:00